Tracking 23610 objects as of 21-Sep-2021
HD Live streaming from Space Station
objects crossing your sky now

STARLINK-1146

Track STARLINK-1146 now!
10-day predictions
STARLINK-1146 is classified as:


NORAD ID: 45094
Int'l Code: 2020-006BC
Perigee: 553.5 km
Apogee: 555.2 km
Inclination: 53.1 °
Period: 95.6 minutes
Semi major axis: 6925 km
RCS: Unknown
Launch date: January 29, 2020
Source: United States (US)
Launch site: AIR FORCE EASTERN TEST RANGE (AFETR)
aabbcc
Your satellite tracking list
Your tracking list is empty




NASA's NSSDC Master Catalog

Two Line Element Set (TLE):
1 45094U 20006BC  21263.33217310  .00000750  00000-0  69218-4 0  9996
2 45094  53.0557  10.0574 0001238  95.7170 264.3960 15.06394727 91148
Source of the keplerian elements: AFSPC